612  
ASUS41 KCLE 142000  
RWRCLE  
OHIO REGIONAL WEATHER ROUNDUP  
NATIONAL WEATHER SERVICE WILMINGTON, OH  
400 PM EDT WED APR 14 2021  
 
NOTE: "FAIR" INDICATES FEW OR NO CLOUDS BELOW 12,000 FEET WITH NO  
SIGNIFICANT WEATHER AND/OR S TO VISIBILITY
.  
 
OHZ001>008-015>018-024>027-034-035-043-044-142100-  
NORTHWEST OHIO  
 
CITY SKY/WX TMP DP RH WIND PRES REMARKS
 
DEFIANCE FAIR 58 32 37 W12G22 29.96F  
FINDLAY PTSUNNY 62 34 35 SW13G21 29.94F  
TOLEDO EXPRESS CLOUDY 59 32 36 W9 29.94F  
TOLEDO EXEC NOT AVBL  
LIMA FAIR 62 34 35 W17G26 29.96F  

 
 
OHZ009>014-019>023-028>033-038-089-142100-  
NORTHEAST OHIO  
 
CITY SKY/WX TMP DP RH WIND PRES REMARKS
 
CLE-HOPKINS PTSUNNY 56 31 38 N6 29.94F  
CLE-LAKEFRONT FAIR 55 35 47 NE7 29.96F  
CUY CO. ARPT MOSUNNY 55 32 41 N7 29.96F  
LORAIN-ELYRIA PTSUNNY 59 33 37 W16G24 29.96F  
ASHTABULA NOT AVBL  
AKRON-CANTON FAIR 59 35 40 SW10 29.96F  
WOOSTER NOT AVBL  
MANSFIELD PTSUNNY 59 35 40 SW15 29.96F  
YOUNGSTOWN PTSUNNY 61 33 35 SW10 29.95F  

 
 
OHZ042-051>053-060>062-070>072-077>081-142100-  
SOUTHWEST OHIO  
 
CITY SKY/WX TMP DP RH WIND PRES REMARKS
 
CINC-COVINGTON PTSUNNY 59 40 49 SW8 30.00F  
CINC-LUNKEN FAIR 61 40 45 MISG 30.01F  
HAMILTON FAIR 65 39 38 VRB7 30.00F  
DAYTON NOT AVBL  
WRIGHT-PAT AFB NOT AVBL  
DAYTON GENERAL PTSUNNY 60 38 43 VRB5G16 29.98F  
WILMINGTON FAIR 59 38 45 NW13 29.99F  

 
 
OHZ036-037-039>041-045>050-054>059-063>069-073>076-082>088-142100-  
CENTRAL AND SOUTHEAST OHIO  
 
CITY SKY/WX TMP DP RH WIND PRES REMARKS
 
COLUMBUS PTSUNNY 61 37 41 SW10 29.97F  
OSU AIRPORT FAIR 64 38 38 NW13 29.97F  
BOLTON FIELD MOSUNNY 61 37 41 SW7G17 29.99F  
RICKENBACK AFB NOT AVBL  
NEWARK FAIR 63 41 44 W8 29.96F  
MARION PTSUNNY 60 34 37 W8G20 29.96F  
LANCASTER FAIR 59 41 51 SW13 30.00F  
ZANESVILLE NOT AVBL  
NEW PHILLY FAIR 63 38 39 W14 29.96F  

 
 
 
CLICK HERE TO GO TO PREVIOUS BULLETINS.

The Nexlab OH Page
The Nexlab PA Page Main Text Page